Theta_e
279 279 279 279 280 280 280 281 281 282 283 283 285 284 285 284 285 281 279 283 283 281 282 281 281 282 281 282 283 283 284 285 282 278 277 275 275 274 274 274 274 273 273
279 279 278 278 278 278 278 279 280 279 280 281 282 284 283 285 286 283 279 279 277 278 278 279 278 279 279 279 279 278 278 280 280 278 276 275 274 273 272 271 271 271 271
279 278 278 278 278 277 278 278 279 279 279 278 279 280 280 279 277 277 279 277 277 276 275 276 276 277 276 276 276 276 276 276 277 277 275 273 273 272 272 272 271 271 271
278 278 278 278 278 278 277 277 278 278 279 279 278 277 278 278 277 277 277 277 276 276 276 275 275 275 275 275 275 275 275 274 274 274 274 273 272 272 271 271 271 271 271
278 278 278 277 277 277 277 277 277 277 276 276 276 276 276 277 276 277 277 276 276 276 276 276 275 275 275 274 274 274 274 274 274 274 274 273 273 272 271 270 270 271 271
278 278 278 278 277 277 277 277 277 276 276 276 276 276 276 276 276 276 276 276 275 275 274 274 274 273 274 274 273 273 273 273 273 273 273 272 271 270 270 270 270 271 272
277 277 277 277 277 277 277 277 276 276 276 276 276 276 275 276 275 275 275 274 274 273 274 274 274 273 273 273 273 273 273 273 272 272 272 271 270 270 269 270 271 270 270
277 277 276 276 276 276 276 276 276 276 276 276 276 276 276 275 275 275 274 273 273 273 274 273 274 274 274 274 273 272 271 271 271 270 270 270 271 271 270 270 269 269 268
276 276 276 276 276 276 276 276 276 276 276 276 276 276 276 275 275 274 274 273 273 272 272 273 273 274 274 275 273 272 271 271 270 270 271 271 270 269 269 268 268 268 267
276 275 276 276 276 276 276 276 276 276 276 276 276 276 277 276 275 274 274 273 273 272 272 272 273 273 274 274 273 271 270 271 271 270 268 267 267 267 267 265 265 266 266
276 276 277 277 277 276 277 277 277 276 276 276 276 276 276 276 277 276 275 274 273 273 273 273 273 272 273 273 273 271 270 272 271 268 267 266 266 266 265 265 265 265 265
276 276 276 276 276 276 276 275 275 275 275 274 274 274 274 275 275 275 275 275 274 273 273 272 272 272 272 272 271 270 271 270 267 266 266 267 266 266 265 265 265 264 265
275 276 275 275 275 275 275 275 274 274 274 274 274 274 274 274 275 274 274 275 274 274 272 272 272 271 270 269 269 269 268 267 266 266 267 266 265 265 265 264 264 264 264
275 275 275 275 275 274 274 274 274 274 274 274 274 274 274 274 274 274 275 275 274 273 272 271 271 270 270 269 269 269 268 268 267 265 265 264 263 263 263 263 263 264 264
275 275 274 274 274 275 275 275 275 275 274 274 274 273 273 274 274 274 275 275 275 274 273 271 270 269 269 269 268 268 267 266 265 265 264 264 263 263 263 263 263 263 264
275 274 275 275 275 275 275 274 274 274 273 274 273 273 273 273 273 274 274 275 275 274 272 270 269 268 268 267 267 266 266 266 266 265 264 264 263 263 263 262 262 263 263
276 276 276 275 275 275 274 274 275 274 274 276 276 275 275 275 275 274 274 274 274 273 270 268 268 268 267 267 266 265 265 265 264 263 262 262 262 262 261 261 262 262 263
275 275 275 276 275 274 274 274 274 273 274 274 274 274 274 274 274 274 274 273 273 272 270 267 267 268 268 267 267 266 265 264 264 263 263 262 261 261 260 261 261 262 263
275 275 275 275 275 274 274 273 273 272 272 272 272 273 273 272 272 272 273 274 273 272 269 268 268 268 268 268 267 266 265 264 263 262 262 261 260 260 260 260 261 261 262
275 275 275 275 274 274 273 272 272 271 271 271 271 272 271 272 271 271 271 270 270 270 270 269 270 269 268 268 267 266 265 264 263 262 262 261 261 260 260 260 261 262 263
275 275 275 274 273 273 273 272 271 271 271 270 271 272 272 271 271 271 271 270 270 270 270 270 270 271 270 269 268 267 266 264 263 262 261 261 260 260 260 260 261 262 263
275 275 274 273 273 272 272 272 271 270 270 270 270 271 271 271 271 271 271 271 271 271 271 270 270 271 271 270 269 267 266 264 263 262 262 261 260 260 260 260 261 261 262
275 274 273 273 272 272 271 271 270 270 269 270 270 270 270 270 270 270 271 271 271 271 271 270 270 270 271 272 270 269 267 265 265 263 262 261 260 259 259 260 261 262 263
274 273 272 272 272 271 270 270 270 269 269 269 269 269 269 269 270 270 270 270 270 270 270 270 270 270 270 272 270 269 267 266 265 264 263 261 259 259 259 260 261 263 264
274 272 272 271 271 271 270 270 270 270 270 269 269 269 269 269 269 269 269 269 269 269 269 270 270 269 271 271 270 269 267 267 266 265 263 262 261 261 261 260 261 261 264
273 272 272 271 271 271 271 270 270 270 270 270 270 269 269 269 269 269 269 269 269 269 269 269 269 269 271 271 270 268 268 267 266 266 263 263 263 264 266 267 268 268 269
Wind_Speed
12 13 14 15 17 18 21 23 24 24 25 27 30 31 34 35 36 33 30 42 41 38 36 35 35 30 29 26 23 20 17 14 9 5 5 4 2 4 6 10 11 11 12
14 16 18 20 22 25 27 28 30 32 32 33 36 42 44 43 40 37 40 41 35 37 35 34 33 30 28 27 25 22 19 14 9 9 5 2 3 7 8 11 9 11 13
18 20 23 24 25 26 30 34 36 37 36 35 37 42 45 42 36 31 43 38 38 36 30 31 27 27 26 22 20 17 16 14 10 7 5 1 3 6 10 10 11 12 14
20 22 23 24 25 27 29 34 37 35 38 38 38 39 41 38 35 36 34 38 34 31 31 27 26 24 23 18 17 15 10 10 9 6 3 1 2 5 11 14 17 15 20
20 23 24 25 25 27 30 29 36 34 32 34 37 37 35 36 32 35 34 34 33 30 29 27 26 21 20 16 13 11 7 7 6 4 5 5 6 11 11 12 18 22 24
19 21 23 24 26 25 24 25 36 34 30 31 32 32 30 28 23 26 28 29 23 22 20 17 16 15 18 16 14 12 11 7 6 6 5 7 9 11 13 16 19 20 9
17 17 17 18 20 21 21 27 31 28 27 31 29 25 27 24 20 21 23 22 18 16 13 12 13 11 11 12 13 13 13 11 8 5 7 8 12 12 16 20 20 21 23
13 13 14 16 17 19 23 27 22 22 22 24 20 19 21 19 18 20 19 17 17 15 15 12 10 10 10 11 10 9 8 7 6 5 7 11 14 17 19 21 23 24 24
9 10 12 15 18 19 22 23 20 19 18 17 16 16 16 15 14 13 13 13 13 12 10 9 9 9 9 9 8 9 9 9 8 10 12 17 20 21 19 18 17 18 18
8 11 13 14 16 18 17 16 16 17 17 16 17 16 14 13 12 10 10 8 8 7 7 7 8 7 10 10 10 9 11 11 13 15 18 20 18 18 16 13 13 15 17
12 13 14 14 15 15 17 16 16 17 16 15 15 14 14 14 10 10 10 8 7 5 5 7 8 6 9 9 10 10 10 16 19 20 19 17 16 14 13 12 13 13 17
12 12 12 12 12 12 13 12 12 12 11 10 9 8 8 7 7 6 6 7 6 5 6 5 7 8 10 11 11 10 13 16 15 13 14 14 14 15 14 17 21 21 24
13 12 11 10 10 10 10 10 9 7 6 6 4 3 3 4 4 3 2 2 4 7 6 7 10 12 10 11 11 12 12 12 11 13 15 16 17 22 26 24 23 24 29
13 12 11 10 10 9 8 7 6 6 5 4 4 3 3 4 3 2 3 4 7 7 8 11 14 16 16 16 16 15 15 15 16 18 18 20 21 20 22 19 22 24 26
15 14 13 11 10 8 6 6 6 6 7 6 7 7 7 7 7 4 6 7 8 11 17 17 16 16 17 17 17 18 18 17 15 15 17 20 20 20 22 20 21 24 25
18 17 14 12 10 10 9 8 10 8 7 9 9 10 9 9 8 10 10 11 12 12 14 13 15 15 15 16 16 18 16 16 15 17 19 20 21 22 23 25 24 24 26
23 19 18 17 15 14 13 12 9 9 11 12 14 14 14 14 13 13 13 13 15 16 17 15 15 15 15 16 17 18 20 19 22 21 20 21 22 23 24 25 26 25 28
24 21 19 17 17 16 15 14 13 11 11 14 18 19 19 19 18 16 17 17 19 18 21 20 19 19 20 20 21 20 22 22 21 21 22 23 23 23 25 26 25 27 28
26 24 23 21 20 19 17 17 17 17 19 21 22 24 24 23 22 20 18 22 22 21 20 21 22 24 25 25 25 25 25 25 26 27 28 25 24 23 26 27 28 32 32
32 31 28 26 24 24 22 21 21 22 22 24 26 31 24 23 25 27 26 27 28 31 30 29 28 29 29 28 28 27 27 27 26 26 27 25 27 26 28 29 30 30 30
36 34 33 30 27 27 27 27 28 26 28 28 32 35 31 29 31 31 31 32 34 34 34 32 32 34 34 32 31 30 31 32 32 32 29 28 28 28 29 31 32 32 33
36 36 34 35 34 33 34 34 33 32 31 31 33 34 30 28 30 34 36 37 38 37 35 34 35 35 35 35 34 32 33 36 36 32 30 31 30 29 30 32 32 32 32
37 36 35 36 36 34 34 36 34 34 34 34 32 32 29 34 35 36 38 41 41 40 38 37 36 37 35 35 34 34 34 38 38 35 35 34 33 32 31 32 32 32 31
37 37 35 33 33 34 33 33 33 36 35 32 30 31 33 34 36 38 40 40 40 40 38 37 36 37 34 35 35 35 37 38 38 37 36 39 39 37 33 33 33 36 37
38 35 34 32 30 30 30 31 31 31 30 30 31 31 32 32 33 33 35 34 34 35 35 34 34 33 33 35 35 36 37 36 34 36 36 37 40 43 43 39 40 38 38
35 36 33 29 29 28 27 26 26 26 28 29 28 28 30 30 29 29 29 29 30 31 30 30 31 29 33 34 35 36 36 35 35 35 36 38 39 39 38 38 40 40 41
Wind_Direction
50 58 66 70 85 94 91 96 98 103 101 102 105 103 104 100 97 89 84 99 97 93 94 93 89 91 85 83 83 79 86 87 109 111 118 163 236 303 319 325 316 314 314
63 71 73 80 87 87 87 90 97 90 96 95 100 102 98 99 97 95 92 93 89 95 96 97 91 94 90 85 80 78 75 83 104 130 138 167 246 289 309 320 303 307 303
69 74 76 77 80 81 87 93 96 95 93 91 91 95 95 99 99 97 100 101 96 93 90 91 91 89 82 78 78 77 75 78 86 116 132 203 256 276 311 316 313 312 311
68 71 74 74 77 80 85 88 93 94 96 97 97 97 103 105 102 98 97 99 94 88 88 82 82 80 80 80 78 75 80 83 83 96 96 43 311 303 325 324 325 324 317
70 75 75 79 82 85 86 89 94 87 86 92 95 95 97 99 99 104 99 97 93 90 84 78 73 77 77 74 76 67 62 72 67 55 40 3 331 337 337 322 315 317 311
72 76 84 86 87 84 88 88 93 92 87 86 86 87 87 90 92 96 99 96 91 88 88 86 85 78 71 69 70 65 53 50 47 35 6 338 324 329 323 313 311 312 322
68 77 87 91 94 93 94 88 90 90 92 90 86 88 87 88 94 94 92 91 90 87 90 85 73 67 61 53 43 37 30 27 22 352 325 316 309 310 310 306 303 304 295
86 87 92 94 96 98 100 98 96 93 88 90 90 88 89 86 86 90 92 92 92 87 82 79 76 65 37 26 22 12 360 356 344 290 273 287 295 298 298 295 296 296 294
99 101 104 108 103 103 103 102 100 100 97 96 97 97 95 92 89 93 94 91 88 82 76 71 56 40 23 10 346 339 335 329 323 304 281 285 293 295 292 293 294 302 303
113 112 114 116 113 110 110 109 108 105 101 98 95 94 88 84 78 79 84 87 86 75 55 43 28 22 359 348 334 320 320 319 304 300 303 304 300 301 297 278 278 285 301
127 124 123 122 121 120 116 111 110 107 108 104 99 98 97 93 76 65 58 63 58 44 24 9 358 356 326 320 313 292 290 307 295 295 300 302 301 297 291 285 280 277 282
142 139 136 131 125 121 120 119 115 114 110 107 104 97 96 95 76 57 43 30 360 3 346 310 307 316 301 299 290 286 289 288 293 292 290 293 297 302 303 300 297 288 281
161 157 152 146 143 141 141 139 133 130 123 110 100 95 84 72 67 68 48 279 297 278 276 284 283 299 293 303 304 299 296 304 298 298 302 308 313 311 308 308 305 298 298
179 177 173 170 168 168 170 168 163 164 158 165 183 188 203 215 218 263 284 287 305 305 293 306 310 314 318 319 323 323 323 320 314 308 305 304 305 304 299 299 296 300 296
193 193 191 193 190 192 197 203 207 212 209 210 217 218 219 231 231 272 299 305 310 311 311 316 319 320 321 323 323 321 320 318 309 302 296 295 295 295 292 296 293 294 286
200 202 202 202 206 213 219 229 228 226 239 241 239 238 242 259 286 286 294 300 297 303 300 304 306 310 308 308 307 307 306 304 301 298 294 290 290 292 293 295 292 285 283
210 209 208 208 210 212 217 223 231 247 242 236 241 242 249 261 271 276 283 290 287 276 283 285 287 291 291 293 295 297 298 299 301 301 294 290 289 289 290 287 287 286 286
220 225 224 225 224 225 228 235 242 247 251 251 252 253 256 259 263 267 269 278 276 270 267 275 281 287 292 292 293 292 294 296 296 294 289 285 285 285 284 280 283 282 285
225 230 231 234 237 240 243 244 245 249 252 259 263 261 259 258 258 259 260 257 261 263 269 275 283 289 291 293 293 293 293 292 293 292 291 286 284 281 278 279 282 282 284
229 232 232 232 234 237 239 242 244 247 251 255 258 261 261 259 257 259 259 256 260 264 271 278 288 292 291 292 293 293 292 292 290 289 286 284 283 279 277 281 282 283 284
233 236 237 238 239 241 242 243 248 249 252 256 260 265 264 260 262 261 263 263 265 267 272 277 283 290 293 292 293 292 291 292 292 292 287 285 284 279 280 279 280 280 280
238 242 244 244 247 247 249 251 252 252 254 256 261 264 264 252 259 264 266 268 272 274 276 277 278 282 289 291 292 289 289 291 295 292 287 286 283 281 280 279 280 280 281
239 241 243 247 249 251 253 254 252 252 253 256 260 262 260 262 260 261 264 271 275 278 280 278 278 279 287 294 294 291 291 295 299 295 290 287 285 282 280 278 279 281 281
241 241 241 243 246 248 249 251 253 255 253 255 256 258 261 263 265 268 272 275 277 280 280 278 277 279 287 294 294 295 298 302 302 300 297 292 288 285 279 277 278 279 280
243 241 241 241 240 242 246 248 250 252 254 257 259 260 264 266 268 270 274 275 277 282 282 280 277 279 290 295 296 298 302 303 301 302 297 292 288 288 281 276 276 276 277
243 241 240 240 242 243 244 247 250 252 253 257 260 262 266 266 268 271 275 276 280 285 287 283 282 285 294 296 299 304 305 307 309 308 298 288 280 277 278 279 281 282 282